Regional Weather Roundup
Issued by NWS Memphis, TN

Home | Current Version | Previous Version | Text Only | Print | Product List | Glossary On
Versions: 1 2 3 4 5 6 7 8 9 10 11 12 13 14 15 16 17 18 19 20 21 22 23 24 25 26 27 28 29 30 31 32 33 34 35 36 37 38 39 40 41 42 43 44 45 46 47 48 49 50
000
ASUS44 KMEG 210510
RWRMEG
MEMPHIS CWA HOURLY WEATHER ROUNDUP
NATIONAL WEATHER SERVICE MEMPHIS TN
1200 AM CDT THU AUG 21 2014

...WEST TENNESSEE...

CITY           SKY/WX    TMP DP  RH WIND       PRES   REMARKS
MEMPHIS INTL   CLEAR     81  72  74 S7        30.05F
NWS MEMPHIS      N/A     79 N/A N/A MISG        N/A
JACKSON        CLEAR     76  72  87 S6        30.06F
LEXINGTON      CLEAR     75  72  88 SE3       30.07F
SAVANNAH       CLEAR     73  73 100 CALM      30.08F
DYERSBURG      CLEAR     79  64  61 S3        30.05S
UNION CITY     CLEAR     77  73  88 S3        30.04R
PARIS          CLEAR     73  70  88 S3        30.07S
HUNTINGDON     CLEAR     76  73  90 SE6       30.07R


...EASTERN ARKANSAS...

CITY           SKY/WX    TMP DP  RH WIND       PRES   REMARKS
JONESBORO      CLEAR     77  73  87 SW6       30.02F
WEST MEMPHIS   CLEAR     77  75  93 S3        30.03F
BATESVILLE     CLEAR     81  72  74 S3        30.03S
NEWPORT        CLEAR     77  74  90 S6        30.04S
WALNUT RIDGE   PTCLDY    79  72  78 S10       30.01F
BLYTHEVILLE    CLEAR     78  74  87 S6        30.03F
SEARCY           N/A     77  75  93 CALM        N/A
STUTTGART      CLEAR     79  72  78 SE7       30.04S
PINE BLUFF     CLEAR     75  72  90 SE5       30.03R
MONTICELLO     CLEAR     78  73  84 S5        30.05R


...NORTH MISSISSIPPI...

CITY           SKY/WX    TMP DP  RH WIND       PRES   REMARKS
TUPELO         CLEAR     77  73  87 CALM      30.07F
OLIVE BRANCH   CLEAR     75  75 100 S5        30.06F
CLARKSDALE     CLEAR     77  75  94 CALM      30.05F
CORINTH        CLEAR     73  72  94 CALM      30.07F FOG
GRENADA        CLEAR     73  72  94 CALM      30.06F
GREENWOOD      CLEAR     76  73  91 CALM      30.06S
COLUMBUS       CLEAR     76  73  90 CALM      30.09R
STARKVILLE     FAIR      73  72  94 CALM      30.08F
GOLDEN TRIANGL CLEAR     79  70  73 CALM      30.09S


...SOUTHEAST MISSOURI...

CITY           SKY/WX    TMP DP  RH WIND       PRES   REMARKS
WEST PLAINS    PTCLDY    81  63  54 S8        30.05R
POPLAR BLUFF   CLOUDY    79  71  76 SW6       29.99S
CAPE GIRARDEAU CLOUDY    81  74  79 S10       30.00S


...NORTHWEST ALABAMA...

CITY           SKY/WX    TMP DP  RH WIND       PRES   REMARKS
MUSCLE SHOALS  CLEAR     74  71  91 SE3       30.11R


...MIDDLE TENNESSEE...

CITY           SKY/WX    TMP DP  RH WIND       PRES   REMARKS
NASHVILLE      CLOUDY    73  70  90 E6        30.10R
CLARKSVILLE    PTCLDY    71  70  96 SE3       30.06F
COLUMBIA       CLEAR     73  70  88 CALM      30.10R
LEWISBURG      CLOUDY    71  68  90 CALM      30.12R


...WESTERN KENTUCKY...

CITY           SKY/WX    TMP DP  RH WIND       PRES   REMARKS
PADUCAH        PTCLDY    78  73  84 S6        30.02F
FORT CAMPBELL  PTCLDY    72  72 100 S2        30.06S


...CENTRAL ARKANSAS...

CITY           SKY/WX    TMP DP  RH WIND       PRES   REMARKS
LITTLE ROCK    CLEAR     79  73  82 SE7       30.02S


SKY/WX REPORTED AS FAIR MEANS FEW OR NO CLOUDS BELOW
12 THOUSAND FEET.




USA.gov is the U.S. government's official web portal to all federal, state and local government web resources and services.